Weather History for Fort Myers, FL

Change the Weather History Date:

Saturday, March 23, 2013

  Actual Average Record
Temperature  
Mean Temperature 77 °F 71 °F  
Max Temperature 84 °F 81 °F 88 °F (1949)
Min Temperature 69 °F 60 °F 43 °F (1922)
Degree Days  
Heating Degree Days 0 0  
Month to date heating degree days 61 21  
Since 1 July heating degree days 177 281  
Cooling Degree Days 12 6  
Month to date cooling degree days 50 124  
Year to date cooling degree days 361 309  
Growing Degree Days 26 (Base 50)    
Moisture  
Dew Point 68 °F    
Average Humidity 82    
Maximum Humidity 100    
Minimum Humidity 58    
Precipitation  
Precipitation 0.31 in 0.10 in 2.99 in (1984)
Month to date precipitation 0.73 2.17  
Year to date precipitation 3.21 6.26  
Sea Level Pressure  
Sea Level Pressure 29.91 in    
Wind  
Wind Speed 8 mph (South)    
Max Wind Speed 18 mph    
Max Gust Speed 26 mph    
Visibility 8 miles    
Events Rain    
T = Trace of Precipitation, MM = Missing Value Source: NWS Daily Summary

Daily Weather History Graph

Daily Weather History Graph

Search for Another Location

Airport:

Trip Planner

Search our weather history database for the weather conditions in past years. The results will help you decide how hot, cold, wet, or windy it might be!

Date:

Astronomy

Mar. 23, 2013 Rise Set
Actual Time 7:27 AM EDT 7:40 PM EDT
Civil Twilight 7:04 AM EDT 8:03 PM EDT
Nautical Twilight 6:37 AM EDT 8:30 PM EDT
Astronomical Twilight 6:10 AM EDT 8:57 PM EDT
Moon 4:22 PM EDT (3/23) 4:44 AM EDT (3/23)
Length of Visible Light 12h 58m
Length of Day
12h 12m
Waxing Gibbous, 85% of the Moon is Illuminated
Mar 23
Waxing Gibbous
Mar 27
Full
Apr 3
Last Quarter
Apr 10
New
Apr 18
First Quarter

Hourly Weather History & Observations

Time (EDT) Temp. Heat Index Dew Point Humidity Pressure Visibility Wind Dir Wind Speed Gust Speed Precip Events Conditions
12:29 AM 73.4 °F - 69.8 °F 88% 29.96 in 8.0 mi Variable 3.5 mph - 0.00 in Rain Light Rain
12:39 AM 73.4 °F - 69.8 °F 88% 29.97 in 9.0 mi NNW 10.4 mph - 0.00 in Rain Light Rain
12:53 AM 72.0 °F - 69.1 °F 91% 29.98 in 8.0 mi NNW 11.5 mph - 0.02 in Rain Light Rain
1:02 AM 71.6 °F - 69.8 °F 94% 29.97 in 8.0 mi North 10.4 mph - 0.01 in Rain Light Rain
1:53 AM 70.0 °F - 69.1 °F 97% 29.98 in 8.0 mi ENE 8.1 mph - 0.09 in Rain Light Rain
2:29 AM 69.8 °F - 66.2 °F 88% 29.96 in 2.5 mi ESE 3.5 mph - 0.19 in Rain Light Rain
2:36 AM 69.8 °F - 66.2 °F 88% 29.96 in 9.0 mi ENE 4.6 mph - 0.20 in Rain Light Rain
2:53 AM 69.1 °F - 66.9 °F 93% 29.96 in 6.0 mi Calm Calm - 0.22 in Rain Light Rain
3:53 AM 70.0 °F - 68.0 °F 93% 29.93 in 10.0 mi SSE 4.6 mph - 0.01 in   Overcast
4:53 AM 70.0 °F - 68.0 °F 93% 29.93 in 10.0 mi Calm Calm - N/A   Overcast
5:22 AM 69.8 °F - 69.8 °F 100% 29.91 in 9.0 mi ESE 3.5 mph - N/A   Overcast
5:29 AM 69.8 °F - 69.8 °F 100% 29.91 in 9.0 mi SE 3.5 mph - N/A   Overcast
5:53 AM 71.1 °F - 70.0 °F 96% 29.91 in 8.0 mi SSE 3.5 mph - N/A   Overcast
6:53 AM 72.0 °F - 70.0 °F 93% 29.92 in 6.0 mi SSE 5.8 mph - N/A   Mostly Cloudy
7:28 AM 71.6 °F - 69.8 °F 94% 29.93 in 5.0 mi SSE 3.5 mph - N/A   Partly Cloudy
7:45 AM 71.6 °F - 69.8 °F 94% 29.93 in 4.0 mi SSE 3.5 mph - N/A   Mostly Cloudy
7:53 AM 72.0 °F - 70.0 °F 93% 29.94 in 3.0 mi SSE 3.5 mph - N/A   Scattered Clouds
8:53 AM 73.9 °F - 72.0 °F 93% 29.95 in 6.0 mi South 5.8 mph - N/A   Scattered Clouds
9:53 AM 78.1 °F - 71.1 °F 79% 29.94 in 10.0 mi South 5.8 mph - N/A   Clear
10:53 AM 80.1 °F 83.2 °F 70.0 °F 71% 29.94 in 10.0 mi SSW 12.7 mph 19.6 mph N/A   Clear
11:53 AM 82.0 °F 85.9 °F 70.0 °F 67% 29.93 in 10.0 mi SSW 15.0 mph 20.7 mph N/A   Partly Cloudy
12:53 PM 82.9 °F 85.8 °F 68.0 °F 60% 29.91 in 10.0 mi SSW 15.0 mph 21.9 mph N/A   Clear
1:53 PM 82.9 °F 85.4 °F 66.9 °F 58% 29.90 in 10.0 mi South 10.4 mph 23.0 mph N/A   Clear
2:53 PM 82.9 °F 85.8 °F 68.0 °F 60% 29.88 in 10.0 mi SSW 16.1 mph 25.3 mph N/A   Clear
3:53 PM 82.9 °F 85.4 °F 66.9 °F 58% 29.86 in 10.0 mi SSW 13.8 mph 21.9 mph N/A   Clear
4:53 PM 82.0 °F 84.1 °F 66.0 °F 58% 29.84 in 10.0 mi SSW 15.0 mph 21.9 mph N/A   Clear
5:53 PM 80.1 °F 82.7 °F 68.0 °F 67% 29.83 in 10.0 mi SSW 15.0 mph 23.0 mph N/A   Clear
6:53 PM 79.0 °F - 66.9 °F 66% 29.83 in 10.0 mi SW 10.4 mph - N/A   Clear
7:53 PM 75.9 °F - 66.9 °F 74% 29.85 in 10.0 mi SSW 4.6 mph - N/A   Clear
8:53 PM 75.0 °F - 66.9 °F 76% 29.85 in 10.0 mi SSW 5.8 mph - N/A   Clear
9:53 PM 73.9 °F - 66.9 °F 79% 29.87 in 10.0 mi South 3.5 mph - N/A   Clear
10:53 PM 73.0 °F - 66.9 °F 81% 29.88 in 10.0 mi SSE 3.5 mph - N/A   Clear
11:53 PM 71.1 °F - 66.0 °F 84% 29.88 in 10.0 mi ESE 3.5 mph - N/A   Partly Cloudy